GW1815 Weather Reports


time (UTC)temp
F
wind
direction
speed
knots
gust
knots
rain 1hr
in
rain 24hr
in
rain mn
in
humidity
%
barometer
mb
20260906130042 65 0 1.7 7.8 0.00 0.00 0.00 94 1019.3
20260906124544 64 46 0.9 3.5 0.00 0.00 0.00 94 1019.2
20260906123108 63 0 0.0 2.6 0.00 0.00 0.00 94 1019.0
20260906121540 62 0 0.0 1.7 0.00 0.00 0.00 93 1018.9
20260906120039 62 0 0.0 0.0 0.00 0.00 0.00 93 1018.8
20260906114541 62 0 0.0 0.9 0.00 0.00 0.00 93 1018.7
20260906113041 62 0 0.0 0.0 0.00 0.00 0.00 93 1018.5
20260906111541 63 0 0.0 0.0 0.00 0.00 0.00 93 1018.5
20260906110038 63 0 0.0 0.0 0.00 0.00 0.00 93 1018.2
20260906104542 63 0 0.0 0.9 0.00 0.00 0.00 93 1018.1
20260906103038 64 0 0.0 0.0 0.00 0.00 0.00 93 1018.1
20260906101542 64 0 0.0 0.9 0.00 0.00 0.00 93 1018.0
20260906100035 64 20 0.9 2.6 0.00 0.00 0.00 93 1017.7
20260906094536 64 20 0.9 4.3 0.00 0.00 0.00 93 1017.7
20260906093041 64 20 1.7 4.3 0.00 0.00 0.00 93 1017.8
20260906091552 64 0 0.9 3.5 0.00 0.00 0.00 93 1017.8
20260906090038 63 327 0.0 1.7 0.00 0.00 0.00 93 1017.7
20260906084537 63 0 0.0 0.0 0.00 0.00 0.00 92 1017.7
20260906083039 63 0 0.0 0.0 0.00 0.00 0.00 92 1017.8
20260906081541 64 0 0.0 0.0 0.00 0.00 0.00 92 1017.7
20260906080039 64 0 0.0 0.9 0.00 0.00 0.00 92 1017.4
20260906074546 64 0 0.0 1.7 0.00 0.00 0.00 92 1017.4
20260906073040 64 0 0.0 1.7 0.00 0.00 0.00 92 1017.5
20260906071539 64 0 0.0 1.7 0.00 0.00 0.00 92 1017.5
20260906070039 64 0 0.0 2.6 0.00 0.00 0.00 92 1017.4
20260906064538 64 0 0.0 2.6 0.00 0.00 0.00 91 1017.5
20260906063038 65 327 0.0 1.7 0.00 0.00 0.00 91 1017.5
20260906061538 65 0 0.0 1.7 0.00 0.00 0.00 91 1017.5
20260906060039 65 0 0.0 0.0 0.00 0.00 0.00 91 1017.5
20260906054543 66 0 0.0 1.7 0.00 0.00 0.00 91 1017.4
20260906053039 67 0 0.0 0.9 0.00 0.00 0.00 92 1017.4
20260906051540 67 0 0.0 2.6 0.00 0.00 0.00 92 1017.4
20260906050050 68 0 0.0 1.7 0.00 0.00 0.00 92 1017.3
20260906044538 68 327 0.9 3.5 0.00 0.00 0.00 92 1017.2
20260906043043 68 9 2.6 7.0 0.00 0.00 0.00 92 1016.9
20260906041539 68 12 3.5 8.7 0.00 0.00 0.00 92 1016.8
20260906040040 68 40 2.6 7.0 0.00 0.00 0.00 92 1016.6
20260906034537 68 22 3.5 7.8 0.00 0.00 0.00 92 1016.6
20260906033047 68 5 1.7 5.2 0.00 0.00 0.00 92 1016.6
20260906031541 68 345 0.9 8.7 0.00 0.00 0.00 92 1016.6
20260906030044 68 342 1.7 7.8 0.00 0.00 0.00 91 1016.5
20260906024545 68 15 3.5 10.4 0.00 0.00 0.00 91 1016.6
20260906023049 68 351 3.5 9.6 0.00 0.00 0.00 91 1016.6
20260906021540 68 15 3.5 8.7 0.00 0.00 0.00 90 1016.6
20260906020051 69 11 2.6 7.0 0.00 0.00 0.00 90 1016.8
20260906014538 69 10 2.6 8.7 0.00 0.00 0.00 90 1016.6
20260906013047 69 355 2.6 9.6 0.00 0.00 0.00 90 1016.6
20260906011556 70 360 5.2 9.6 0.00 0.00 0.00 90 1016.5
20260906010045 70 13 4.3 10.4 0.00 0.00 0.00 90 1016.5
20260906004539 70 11 6.1 12.2 0.00 0.00 0.00 90 1016.3
20260906003040 70 38 3.5 13.0 0.00 0.00 0.00 90 1016.2
20260906001541 70 5 4.3 13.9 0.00 0.00 0.00 90 1016.4
20260906000051 70 19 6.1 13.0 0.00 0.00 0.00 90 1016.2
20260905234540 70 31 4.3 10.4 0.00 0.00 0.00 90 1016.2
20260905233041 71 9 5.2 13.0 0.00 0.00 0.00 89 1016.3
20260905231539 71 64 7.8 17.4 0.00 0.00 0.00 88 1016.2
20260905230040 72 34 5.2 15.6 0.00 0.00 0.00 88 1016.1
20260905224548 72 28 4.3 10.4 0.00 0.00 0.00 88 1016.0
20260905223039 72 28 6.1 13.0 0.00 0.00 0.00 87 1015.9
20260905221540 72 30 5.2 13.9 0.00 0.00 0.00 86 1016.1
20260905220039 72 351 7.8 18.2 0.00 0.00 0.00 86 1015.8
20260905214541 73 352 4.3 14.8 0.00 0.00 0.00 85 1015.6
20260905213044 74 13 6.1 14.8 0.00 0.00 0.00 84 1015.3
20260905211549 75 360 10.4 19.1 0.00 0.00 0.00 82 1015.2
20260905210044 76 24 7.0 17.4 0.00 0.00 0.00 81 1015.2
20260905204543 77 37 5.2 13.0 0.00 0.00 0.00 82 1015.1
20260905203041 78 60 7.0 16.5 0.00 0.00 0.00 81 1015.1
20260905201540 78 13 6.1 13.9 0.00 0.00 0.00 81 1015.4
20260905200042 79 27 6.1 16.5 0.00 0.00 0.00 80 1015.5
20260905194536 79 12 6.1 12.2 0.00 0.00 0.00 80 1015.4
20260905193039 79 17 6.1 12.2 0.00 0.00 0.00 82 1015.4
20260905191538 78 35 7.8 11.3 0.00 0.00 0.00 82 1015.4
20260905190038 77 5 3.5 9.6 0.00 0.00 0.00 85 1015.4
20260905184559 76 342 1.7 8.7 0.00 0.00 0.00 86 1015.6
20260905183047 75 348 3.5 7.8 0.00 0.00 0.00 87 1015.7
20260905181552 75 17 2.6 7.8 0.00 0.00 0.00 87 1015.7
20260905180043 75 333 3.5 11.3 0.00 0.00 0.00 87 1015.6
20260905174536 75 360 6.1 12.2 0.00 0.00 0.00 86 1015.6
20260905173039 75 360 3.5 11.3 0.00 0.00 0.00 87 1015.6
20260905171542 75 28 5.2 8.7 0.00 0.00 0.00 86 1015.7
20260905170039 75 22 6.1 10.4 0.00 0.00 0.00 85 1015.8
20260905164535 75 350 3.5 10.4 0.00 0.00 0.00 86 1015.8
20260905163040 75 313 2.6 8.7 0.00 0.00 0.00 87 1015.7
20260905161536 74 360 3.5 9.6 0.00 0.00 0.00 87 1015.7
20260905160047 74 15 5.2 10.4 0.00 0.00 0.00 88 1015.7
20260905154605 74 17 4.3 9.6 0.00 0.00 0.00 89 1015.6
20260905153039 74 338 3.5 9.6 0.00 0.00 0.00 89 1015.6
20260905151540 74 360 3.5 8.7 0.00 0.00 0.00 89 1015.4
20260905150043 74 44 4.3 9.6 0.00 0.00 0.00 90 1015.2
20260905144541 74 355 3.5 9.6 0.00 0.00 0.00 91 1015.3
20260905143039 73 5 2.6 9.6 0.00 0.00 0.00 92 1014.9
20260905141536 73 360 6.1 12.2 0.00 0.00 0.00 92 1014.9
20260905140046 73 344 2.6 9.6 0.00 0.00 0.00 93 1014.8
20260905134539 72 19 4.3 9.6 0.00 0.00 0.00 93 1014.6
20260905133044 72 360 2.6 9.6 0.00 0.00 0.00 93 1014.9
20260905131542 72 5 5.2 10.4 0.00 0.00 0.00 94 1014.9